Вернуться в каталог

UME 1

ISS 1

АктивенНаукаLEO
NORAD 8709·PAYLOAD·🇯🇵 Japan

Запущен Feb 29, 1976 с Tanegashima Space Center

Loading…

Ближайшие Пролёты (ближайшие 24 часа)

TLE

СвежийSource: Space-Track

Эпоха: Sep 14, 2026, 14:17 UTC

1 08709U 76019A   26257.59573295  .00000003  00000-0  61208-4 0  9998
2 08709  69.6745 309.8184 0011174 200.7554 311.8406 13.71751576529353

Отслеживайте UME 1 в реальном времени с AllMySat

Download on the App Store